This is the latest recevied weather packets stored in our database for station/object KA1BMF-13. If no packets are shown the sender has not sent any weather packets the latest 10 day(s).
| Time | Temp. | Humidity | Pressure | Rain* | Wind** | Luminosity | Snow |
|---|---|---|---|---|---|---|---|
| 1788091519 | 16.11° C | 94% | 1021.9 hPa | 0 mm | - | 74 W/m² | - |
| 1788090920 | 15.56° C | 95% | 1022 hPa | 0 mm | - | 103 W/m² | - |
| 1788090319 | 15.56° C | 95% | 1021.8 hPa | 0 mm | - | 69 W/m² | - |
| 1788089717 | 15° C | 95% | 1021.8 hPa | 0 mm | - | 72 W/m² | - |
| 1788089117 | 15° C | 96% | 1021.9 hPa | 0 mm | - | 55 W/m² | - |
| 1788088520 | 14.44° C | 96% | 1021.9 hPa | 0 mm | - | 36 W/m² | - |
| 1788087920 | 14.44° C | 96% | 1021.8 hPa | 0 mm | - | 25 W/m² | - |
| 1788087318 | 14.44° C | 96% | 1021.8 hPa | 0 mm | - | 25 W/m² | - |
| 1788086717 | 14.44° C | 95% | 1021.6 hPa | 0 mm | - | 20 W/m² | - |
| 1788086118 | 13.89° C | 95% | 1021.7 hPa | 0 mm | - | 11 W/m² | - |
| 1788085518 | 14.44° C | 95% | 1021.7 hPa | 0 mm | - | 4 W/m² | - |
| 1788084918 | 14.44° C | 95% | 1021.6 hPa | 0 mm | - | 2 W/m² | - |
| 1788084318 | 14.44° C | 94% | 1021.6 hPa | 0 mm | - | 0 W/m² | - |
| 1788083718 | 14.44° C | 94% | 1021.7 hPa | 0 mm | - | 0 W/m² | - |
| 1788083116 | 14.44° C | 94% | 1021.7 hPa | 0 mm | - | 0 W/m² | - |
| 1788082516 | 14.44° C | 94% | 1021.8 hPa | 0 mm | - | 0 W/m² | - |
| 1788081919 | 14.44° C | 94% | 1021.8 hPa | 0 mm | - | 0 W/m² | - |
| 1788081319 | 14.44° C | 94% | 1021.9 hPa | 0 mm | - | 0 W/m² | - |
| 1788080717 | 14.44° C | 94% | 1021.9 hPa | 0 mm | - | 0 W/m² | - |
| 1788080116 | 14.44° C | 94% | 1021.8 hPa | 0 mm | - | 0 W/m² | - |
| 1788079517 | 14.44° C | 94% | 1021.9 hPa | 0 mm | - | 0 W/m² | - |
| 1788078920 | 14.44° C | 93% | 1022 hPa | 0 mm | - | 0 W/m² | - |
| 1788078318 | 14.44° C | 93% | 1022 hPa | 0 mm | - | 0 W/m² | - |
| 1788077717 | 14.44° C | 93% | 1022 hPa | 0 mm | - | 0 W/m² | - |
| 1788077117 | 14.44° C | 93% | 1022 hPa | 0 mm | - | 0 W/m² | - |
* Rain latest hour (hover to see other rain measurements)
** Current wind speed in m/s (hover to see current wind gust speed)